(431938) = 2008 TO168

Discovered at Mount Lemmon on 2008-10-02 by Mt. Lemmon Survey.

Orbit

Orbit type: Main Belt

Note: WebGL enabled browser required.

epoch2023-02-25.0
epoch JD2460000.5
perihelion date2020-08-24.27212
perihelion JD2459085.77212
argument of perihelion (°)262.78615
ascending node (°)44.23530
inclination (°)14.79212
eccentricity0.0582568
perihelion distance (AU)2.4989438
Tisserand w.r.t. Jupiter3.3
ΔV w.r.t. Earth (km/sec)10.9
semimajor axis (AU)2.6535300
mean anomaly (°)208.57380
mean daily motion (°/day)0.22801730
aphelion distance (AU)2.808
period (years)4.32
P-vector [x]0.57917721
P-vector [y]-0.61015991
P-vector [z]-0.54060950
Q-vector [x]0.79550696
Q-vector [y]0.56791735
Q-vector [z]0.21127839
absolute magnitude16.6
phase slope0.15
uncertainty0
referenceMPO 745323
observations used242
oppositions8
arc length (days)5336
first opposition used2008
last opposition used2023
residual rms (arc-secs)0.76
perturbers coarse indicatorM-v
perturbers precise indicator003Ek
first observation date used2008-10-02.0
last observation date used2023-05-13.0
computer nameMPCLINUX
Minimum Orbit Intersection Distances (in AU)
for orbit epoch: 2460000.5, reference: E2023-JE0
Mercury2.05753
Venus1.79325
Earth1.53415
Mars1.05773
Jupiter2.31782
Saturn6.36811
Uranus15.7398
Neptune27.2096

Observations

246 total observations over interval: 2008 10 02.46284 – 2023 05 13.200465
These data are available for download (format description).

Date (UT) J2000 RA J2000 Dec Magn Location Ref
2008 10 02.46284 03 51 47.70 +19 41 01.6 20.6 V G96 – Mt. Lemmon Survey MPS 270370
2008 10 02.46936 03 51 47.59 +19 41 03.3 20.2 V G96 – Mt. Lemmon Survey MPS 270370
2008 10 02.47607 03 51 47.48 +19 41 04.6 20.7 V G96 – Mt. Lemmon Survey MPS 270370
2008 10 02.48258 03 51 47.34 +19 41 06.2 20.6 V G96 – Mt. Lemmon Survey MPS 270370
2008 10 20.31307 03 42 17.85 +20 44 03.8 20.5 V 691 – Steward Observatory, Kitt Peak-Spacewatch MPS 270370
2008 10 20.33073 03 42 17.01 +20 44 07.2 20.4 V 691 – Steward Observatory, Kitt Peak-Spacewatch MPS 270370
2008 10 20.34839 03 42 16.14 +20 44 10.5 20.3 V 691 – Steward Observatory, Kitt Peak-Spacewatch MPS 270370
2008 11 01.25836 03 31 21.75 +21 15 20.4 20.3 V 691 – Steward Observatory, Kitt Peak-Spacewatch MPS 270370
2008 11 01.27609 03 31 20.66 +21 15 23.1 20.2 V 691 – Steward Observatory, Kitt Peak-Spacewatch MPS 270370
2008 11 01.29382 03 31 19.51 +21 15 25.5 20.2 V 691 – Steward Observatory, Kitt Peak-Spacewatch MPS 270370
2008 11 18.15839 03 12 46.94 +21 41 59.8 19.1 V 703 – Catalina Sky Survey MPS 270370
2008 11 18.16561 03 12 46.58 +21 42 02.1 19.8 V 703 – Catalina Sky Survey MPS 270370
2008 11 18.17281 03 12 46.11 +21 42 03.7 19.6 V 703 – Catalina Sky Survey MPS 270370
2008 11 18.18012 03 12 45.54 +21 42 03.3 19.1 V 703 – Catalina Sky Survey MPS 270370
2012 10 24.363737 01 12 23.349 -02 25 12.66 19.6 i F51 – Pan-STARRS 1, Haleakala MPS 506404
2012 10 24.391837 01 12 21.660 -02 25 10.48 20.1 r F51 – Pan-STARRS 1, Haleakala MPS 506404
2012 10 24.423488 01 12 19.769 -02 25 08.23 20.1 r F51 – Pan-STARRS 1, Haleakala MPS 506404
2014 01 26.53379 08 13 43.65 +42 11 15.1 20.4 V G96 – Mt. Lemmon Survey MPS 506404
2014 01 26.53709 08 13 43.40 +42 11 15.8 20.4 V G96 – Mt. Lemmon Survey MPS 506404
2014 01 26.53832 08 13 43.29 +42 11 16.4 20.1 V G96 – Mt. Lemmon Survey MPS 506404
2014 01 26.53956 08 13 43.24 +42 11 16.3 20.5 V G96 – Mt. Lemmon Survey MPS 506404
2014 02 24.24739 07 47 23.446 +41 47 36.74 21.4 w F51 – Pan-STARRS 1, Haleakala MPS 506404
2014 02 24.26045 07 47 23.000 +41 47 33.71 21.2 w F51 – Pan-STARRS 1, Haleakala MPS 506404
2014 02 24.27349 07 47 22.572 +41 47 30.76 21.2 w F51 – Pan-STARRS 1, Haleakala MPS 506404
2015 01 28.61578 14 35 38.179 -07 34 15.30 21.8 w F51 – Pan-STARRS 1, Haleakala MPS 567549
2015 01 28.62804 14 35 38.768 -07 34 18.66 21.5 w F51 – Pan-STARRS 1, Haleakala MPS 567549
2015 01 28.64028 14 35 39.373 -07 34 22.55 21.6 w F51 – Pan-STARRS 1, Haleakala MPS 567549
2015 01 28.65259 14 35 39.958 -07 34 26.25 22.0 w F51 – Pan-STARRS 1, Haleakala MPS 567549
2015 01 30.59808 14 37 15.859 -07 43 56.33 21.4 w F51 – Pan-STARRS 1, Haleakala MPS 567549
2015 01 30.61017 14 37 16.439 -07 44 00.19 21.6 w F51 – Pan-STARRS 1, Haleakala MPS 567549
2015 01 30.62227 14 37 16.999 -07 44 03.58 21.6 w F51 – Pan-STARRS 1, Haleakala MPS 567549
2015 03 18.53116 14 52 07.524 -10 11 54.24 20.7 w F51 – Pan-STARRS 1, Haleakala MPS 587151
2015 03 18.54392 14 52 07.287 -10 11 55.37 20.8 w F51 – Pan-STARRS 1, Haleakala MPS 587151
2015 03 18.55664 14 52 07.060 -10 11 56.69 20.8 w F51 – Pan-STARRS 1, Haleakala MPS 587151
2015 03 18.56937 14 52 06.819 -10 11 58.06 20.9 w F51 – Pan-STARRS 1, Haleakala MPS 587151
2015 03 19.51266 14 51 50.564 -10 13 28.12 20.6 w F51 – Pan-STARRS 1, Haleakala MPS 587151
2015 03 19.52524 14 51 50.313 -10 13 29.23 20.9 w F51 – Pan-STARRS 1, Haleakala MPS 587151
2015 03 19.55530 14 51 49.722 -10 13 32.18 20.8 w F51 – Pan-STARRS 1, Haleakala MPS 587151
2015 03 19.56789 14 51 49.466 -10 13 33.36 20.8 w F51 – Pan-STARRS 1, Haleakala MPS 587151
2015 04 11.38288 14 38 02.55 -10 37 14.6 20.0 V G96 – Mt. Lemmon Survey MPS 600667
2015 04 11.38883 14 38 02.27 -10 37 14.4 20.4 V G96 – Mt. Lemmon Survey MPS 600667
2015 04 11.39478 14 38 01.99 -10 37 15.0 20.8 V G96 – Mt. Lemmon Survey MPS 600667
2015 04 18.29645 14 31 37.83 -10 41 09.6 19.9 r G45 – Space Surveillance Telescope, Atom Site MPS 606369
2015 04 18.30215 14 31 37.42 -10 41 10.1 20.6 r G45 – Space Surveillance Telescope, Atom Site MPS 606369
2015 04 18.30804 14 31 37.10 -10 41 10.2 20.3 r G45 – Space Surveillance Telescope, Atom Site MPS 606369
2015 04 18.31333 14 31 36.81 -10 41 10.5 20.3 r G45 – Space Surveillance Telescope, Atom Site MPS 606369
2015 04 18.31579 14 31 36.66 -10 41 10.0 20.5 r G45 – Space Surveillance Telescope, Atom Site MPS 606369
2015 04 18.32202 14 31 36.24 -10 41 10.6 20.1 r G45 – Space Surveillance Telescope, Atom Site MPS 606369
2015 04 18.32792 14 31 35.88 -10 41 10.3 20.3 r G45 – Space Surveillance Telescope, Atom Site MPS 606369
2015 04 18.33499 14 31 35.50 -10 41 10.5 20.5 r G45 – Space Surveillance Telescope, Atom Site MPS 606369
2015 04 19.22254 14 30 43.04 -10 41 33.3 19.7 R 309 – Cerro Paranal MPS 603176
2015 04 19.22980 14 30 42.60 -10 41 33.5 19.7 R 309 – Cerro Paranal MPS 603176
2015 04 19.23101 14 30 42.53 -10 41 33.5 19.7 R 309 – Cerro Paranal MPS 603176
2015 04 19.23221 14 30 42.45 -10 41 33.6 19.7 R 309 – Cerro Paranal MPS 603176
2015 04 19.23342 14 30 42.38 -10 41 33.6 19.7 R 309 – Cerro Paranal MPS 603176
2015 04 20.28281 14 29 39.78 -10 42 11.0 20.3 r G45 – Space Surveillance Telescope, Atom Site MPS 606369
2015 04 20.28921 14 29 39.38 -10 42 11.1 20.1 r G45 – Space Surveillance Telescope, Atom Site MPS 606369
2015 04 20.29214 14 29 39.26 -10 42 11.6 19.4 r G45 – Space Surveillance Telescope, Atom Site MPS 606369
2015 04 20.30423 14 29 38.45 -10 42 11.6 20.0 r G45 – Space Surveillance Telescope, Atom Site MPS 606369
2015 04 21.33105 14 28 36.41 -10 42 43.1 20.1 V 703 – Catalina Sky Survey MPS 603176
2015 04 21.33815 14 28 36.02 -10 42 42.3 20.4 V 703 – Catalina Sky Survey MPS 603176
2015 04 21.34522 14 28 35.57 -10 42 43.6 20.4 V 703 – Catalina Sky Survey MPS 603176
2015 04 21.35229 14 28 35.09 -10 42 43.7 20.7 V 703 – Catalina Sky Survey MPS 603176
2015 04 21.63323 14 28 18.27 -10 42 51.8 19.9 R D29 – Purple Mountain Observatory, XuYi Station MPS 603176
2015 04 21.64646 14 28 17.40 -10 42 54.1 19.0 R D29 – Purple Mountain Observatory, XuYi Station MPS 603176
2015 04 22.30530 14 27 37.14 -10 43 13.4 20.4 r G45 – Space Surveillance Telescope, Atom Site MPS 606369
2015 04 22.31103 14 27 36.79 -10 43 13.1 20.3 r G45 – Space Surveillance Telescope, Atom Site MPS 606369
2015 04 22.31655 14 27 36.40 -10 43 13.8 19.7 r G45 – Space Surveillance Telescope, Atom Site MPS 606369
2015 04 22.31999 14 27 36.20 -10 43 13.2 20.0 r G45 – Space Surveillance Telescope, Atom Site MPS 606369
2015 04 23.29350 14 26 36.48 -10 43 43.5 20.2 r G45 – Space Surveillance Telescope, Atom Site MPS 606369
2015 04 23.29929 14 26 36.10 -10 43 43.8 20.0 r G45 – Space Surveillance Telescope, Atom Site MPS 606369
2015 04 23.30445 14 26 35.84 -10 43 44.1 20.2 r G45 – Space Surveillance Telescope, Atom Site MPS 606369
2015 04 23.31038 14 26 35.38 -10 43 44.3 20.0 r G45 – Space Surveillance Telescope, Atom Site MPS 606369
2015 04 23.31873 14 26 34.89 -10 43 43.8 20.5 r G45 – Space Surveillance Telescope, Atom Site MPS 606369
2015 04 23.32459 14 26 34.53 -10 43 44.5 19.6 r G45 – Space Surveillance Telescope, Atom Site MPS 606369
2015 04 23.33022 14 26 34.20 -10 43 44.6 19.5 r G45 – Space Surveillance Telescope, Atom Site MPS 606369
2015 04 23.39497 14 26 30.321 -10 43 45.87 19.9 w F51 – Pan-STARRS 1, Haleakala MPS 603176
2015 04 23.40749 14 26 29.527 -10 43 46.23 19.9 w F51 – Pan-STARRS 1, Haleakala MPS 603176
2015 04 23.41998 14 26 28.731 -10 43 46.71 19.9 w F51 – Pan-STARRS 1, Haleakala MPS 603176
2015 04 23.43246 14 26 27.932 -10 43 47.05 19.9 w F51 – Pan-STARRS 1, Haleakala MPS 603176
2015 04 24.47712 14 25 23.266 -10 44 19.71 19.9 w F51 – Pan-STARRS 1, Haleakala MPS 604596
2015 04 24.48926 14 25 22.488 -10 44 20.09 19.9 w F51 – Pan-STARRS 1, Haleakala MPS 604596
2015 04 24.50138 14 25 21.709 -10 44 20.53 19.8 w F51 – Pan-STARRS 1, Haleakala MPS 604596
2015 04 24.50586 14 25 21.421 -10 44 20.70 19.7 w F52 – Pan-STARRS 2, Haleakala MPS 604596
2015 04 24.51348 14 25 20.936 -10 44 20.84 19.9 w F51 – Pan-STARRS 1, Haleakala MPS 604596
2015 04 24.51874 14 25 20.599 -10 44 21.01 19.8 w F52 – Pan-STARRS 2, Haleakala MPS 604596
2015 04 24.53163 14 25 19.778 -10 44 21.34 19.8 w F52 – Pan-STARRS 2, Haleakala MPS 604596
2015 04 24.54451 14 25 18.946 -10 44 21.70 19.7 w F52 – Pan-STARRS 2, Haleakala MPS 604596
2015 04 25.45954 14 24 22.219 -10 44 51.46 19.9 w F51 – Pan-STARRS 1, Haleakala MPS 604596
2015 04 25.46970 14 24 21.578 -10 44 51.72 19.5 i F52 – Pan-STARRS 2, Haleakala MPS 604596
